WGN618 KPHX-KLAS

Flight info

Callsign WGN618
Flight time 0h 39m
Altitude 28000
Route ZEPER2 RRSTA ELLDA RKSTR4
Aircraft MD1F/H-SDE1E2E3FGHIJ2J3J4J5M1RWXY/LB1D1

Departure

Time 2026-05-07 02:13
Airport Phoenix Sky Harbor International Airport (KPHX)

Arrival

Time 2026-05-07 02:52
Airport Harry Reid International Airport (KLAS)
Time Latitude Longitude Altitude Speed Heading
2026-05-07 01:58 33.42526 -112.01836 1128 ft 0 kts 90°
2026-05-07 02:03 33.42526 -112.01829 1128 ft 2 kts 90°
2026-05-07 02:04 33.42528 -112.01783 1128 ft 7 kts 77°
2026-05-07 02:04 33.42577 -112.01743 1128 ft 10 kts
2026-05-07 02:04 33.42662 -112.01743 1128 ft 13 kts 358°
2026-05-07 02:04 33.42756 -112.01715 1129 ft 15 kts 52°
2026-05-07 02:05 33.42774 -112.01591 1130 ft 16 kts 88°
2026-05-07 02:05 33.42775 -112.01440 1130 ft 19 kts 90°
2026-05-07 02:05 33.42775 -112.01269 1130 ft 22 kts 90°
2026-05-07 02:05 33.42776 -112.01074 1131 ft 24 kts 89°
2026-05-07 02:06 33.42775 -112.00864 1130 ft 26 kts 91°
2026-05-07 02:06 33.42772 -112.00646 1130 ft 23 kts 91°
2026-05-07 02:06 33.42861 -112.00528 1131 ft 22 kts 10°
2026-05-07 02:06 33.42980 -112.00411 1133 ft 23 kts 69°
2026-05-07 02:07 33.42994 -112.00207 1133 ft 26 kts 90°
2026-05-07 02:07 33.42993 -111.99730 1133 ft 31 kts 90°
2026-05-07 02:07 33.42991 -111.99490 1136 ft 16 kts 89°
2026-05-07 02:08 33.42992 -111.99472 1136 ft 0 kts 88°
2026-05-07 02:08 33.42992 -111.99468 1136 ft 1 kts 88°
2026-05-07 02:09 33.42993 -111.99436 1136 ft 6 kts 87°
2026-05-07 02:09 33.42994 -111.99423 1136 ft 0 kts 86°
2026-05-07 02:09 33.42994 -111.99419 1136 ft 1 kts 86°
2026-05-07 02:09 33.42997 -111.99387 1136 ft 5 kts 75°
2026-05-07 02:10 33.43000 -111.99379 1136 ft 0 kts 63°
2026-05-07 02:10 33.43006 -111.99367 1136 ft 6 kts 51°
2026-05-07 02:10 33.43076 -111.99339 1136 ft 2 kts 348°
2026-05-07 02:10 33.43098 -111.99367 1136 ft 6 kts 289°
2026-05-07 02:11 33.43100 -111.99383 1135 ft 0 kts 277°
2026-05-07 02:12 33.43102 -111.99410 1135 ft 10 kts 272°
2026-05-07 02:12 33.43101 -111.99616 1134 ft 57 kts 270°
2026-05-07 02:12 33.43105 -112.00478 1136 ft 146 kts 270°
2026-05-07 02:12 33.43105 -112.01877 1537 ft 178 kts 270°
2026-05-07 02:13 33.43131 -112.03231 2980 ft 142 kts 274°
2026-05-07 02:13 33.43203 -112.04720 3380 ft 170 kts 275°
2026-05-07 02:13 33.43229 -112.06348 4179 ft 174 kts 271°
2026-05-07 02:13 33.43249 -112.08115 4802 ft 194 kts 273°
2026-05-07 02:14 33.43307 -112.10120 5273 ft 225 kts 273°
2026-05-07 02:14 33.43364 -112.12153 6013 ft 245 kts 273°
2026-05-07 02:14 33.43410 -112.14450 7153 ft 258 kts 274°
2026-05-07 02:14 33.43729 -112.16779 8296 ft 263 kts 295°
2026-05-07 02:15 33.44784 -112.18735 9421 ft 262 kts 322°
2026-05-07 02:15 33.46478 -112.19880 10578 ft 259 kts 351°
2026-05-07 02:15 33.48496 -112.20074 11751 ft 262 kts
2026-05-07 02:15 33.50576 -112.19898 12972 ft 267 kts
2026-05-07 02:16 33.52576 -112.19735 14149 ft 272 kts
2026-05-07 02:16 33.53912 -112.19727 14757 ft 281 kts
2026-05-07 02:16 33.56249 -112.19836 15250 ft 314 kts 359°
2026-05-07 02:16 33.58778 -112.20049 15666 ft 347 kts 358°
2026-05-07 02:17 33.61675 -112.20383 16172 ft 378 kts 354°
2026-05-07 02:17 33.64728 -112.21117 17175 ft 394 kts 348°
2026-05-07 02:17 33.67849 -112.22115 18313 ft 405 kts 347°
2026-05-07 02:17 33.70973 -112.23158 19513 ft 413 kts 347°
2026-05-07 02:18 33.73949 -112.24133 20703 ft 418 kts 347°
2026-05-07 02:18 33.76995 -112.25111 21806 ft 424 kts 348°
2026-05-07 02:18 33.79960 -112.26067 22939 ft 428 kts 348°
2026-05-07 02:18 33.82955 -112.27025 24040 ft 433 kts 349°
2026-05-07 02:19 33.85986 -112.28003 25121 ft 436 kts 349°
2026-05-07 02:19 33.89002 -112.28981 26280 ft 435 kts 349°
2026-05-07 02:19 33.92096 -112.29973 27436 ft 433 kts 350°
2026-05-07 02:19 33.95298 -112.31010 27884 ft 428 kts 350°
2026-05-07 02:20 33.98409 -112.32014 27849 ft 424 kts 349°
2026-05-07 02:20 34.01607 -112.33443 27894 ft 426 kts 340°
2026-05-07 02:20 34.04635 -112.35490 27965 ft 432 kts 332°
2026-05-07 02:20 34.07355 -112.37971 28003 ft 438 kts 326°
2026-05-07 02:21 34.12648 -112.43394 28039 ft 442 kts 326°
2026-05-07 02:21 34.18093 -112.48953 28064 ft 440 kts 327°
2026-05-07 02:22 34.23637 -112.54554 28080 ft 439 kts 326°
2026-05-07 02:22 34.29100 -112.60087 28093 ft 438 kts 326°
2026-05-07 02:23 34.34640 -112.65688 28110 ft 438 kts 325°
2026-05-07 02:23 34.40224 -112.71336 28118 ft 437 kts 326°
2026-05-07 02:24 34.45740 -112.76933 28131 ft 437 kts 326°
2026-05-07 02:24 34.51155 -112.82386 28134 ft 437 kts 325°
2026-05-07 02:25 34.56629 -112.87938 28139 ft 437 kts 326°
2026-05-07 02:25 34.62121 -112.93463 28141 ft 435 kts 324°
2026-05-07 02:26 34.67563 -112.99078 28143 ft 435 kts 325°
2026-05-07 02:26 34.72890 -113.04556 28162 ft 437 kts 324°
2026-05-07 02:27 34.78052 -113.09505 28154 ft 431 kts 328°
2026-05-07 02:27 34.80349 -113.12073 28182 ft 438 kts 315°
2026-05-07 02:27 34.82195 -113.15048 28188 ft 444 kts 307°
2026-05-07 02:28 34.86170 -113.21227 28165 ft 433 kts 327°
2026-05-07 02:28 34.91720 -113.25235 28184 ft 427 kts 337°
2026-05-07 02:29 34.97411 -113.29016 28135 ft 430 kts 327°
2026-05-07 02:29 34.99720 -113.31911 28165 ft 440 kts 309°
2026-05-07 02:29 35.01349 -113.35544 28202 ft 447 kts 300°
2026-05-07 02:30 35.04947 -113.42506 28202 ft 437 kts 319°
2026-05-07 02:30 35.09866 -113.47995 28165 ft 434 kts 325°
2026-05-07 02:31 35.12517 -113.50717 27993 ft 434 kts 324°
2026-05-07 02:31 35.15148 -113.53393 27405 ft 431 kts 326°
2026-05-07 02:31 35.17545 -113.55818 26890 ft 425 kts 326°
2026-05-07 02:31 35.19861 -113.58160 26374 ft 421 kts 324°
2026-05-07 02:32 35.22229 -113.60560 25884 ft 422 kts 324°
2026-05-07 02:32 35.24543 -113.62899 25386 ft 425 kts 326°
2026-05-07 02:32 35.26869 -113.65251 24899 ft 427 kts 324°
2026-05-07 02:32 35.29224 -113.67641 24412 ft 424 kts 323°
2026-05-07 02:33 35.31533 -113.69969 23867 ft 421 kts 325°
2026-05-07 02:33 35.33833 -113.72284 23348 ft 417 kts 325°
2026-05-07 02:33 35.36061 -113.74557 22848 ft 412 kts 323°
2026-05-07 02:33 35.38244 -113.76804 22359 ft 409 kts 323°
2026-05-07 02:34 35.40440 -113.79065 21872 ft 406 kts 324°
2026-05-07 02:34 35.42581 -113.81267 21374 ft 402 kts 324°
2026-05-07 02:34 35.44740 -113.83481 20894 ft 398 kts 323°
2026-05-07 02:34 35.46864 -113.85660 20413 ft 396 kts 323°
2026-05-07 02:35 35.48996 -113.87844 19948 ft 393 kts 324°
2026-05-07 02:35 35.51103 -113.89996 19441 ft 392 kts 323°
2026-05-07 02:35 35.53213 -113.92158 18952 ft 389 kts 323°
2026-05-07 02:35 35.55283 -113.94278 18467 ft 386 kts 324°
2026-05-07 02:36 35.57326 -113.96368 17995 ft 383 kts 323°
2026-05-07 02:36 35.59389 -113.98482 17530 ft 379 kts 323°
2026-05-07 02:36 35.61400 -114.00537 17088 ft 376 kts 323°
2026-05-07 02:36 35.63412 -114.02600 16626 ft 374 kts 323°
2026-05-07 02:37 35.65396 -114.04629 16175 ft 371 kts 324°
2026-05-07 02:37 35.67397 -114.06663 15722 ft 368 kts 323°
2026-05-07 02:37 35.69374 -114.08682 15280 ft 365 kts 323°
2026-05-07 02:37 35.71287 -114.10648 15109 ft 349 kts 324°
2026-05-07 02:38 35.73099 -114.12508 15106 ft 327 kts 325°
2026-05-07 02:38 35.74789 -114.14315 15133 ft 313 kts 318°
2026-05-07 02:38 35.76206 -114.16308 15079 ft 308 kts 310°
2026-05-07 02:38 35.77348 -114.18514 14850 ft 310 kts 303°
2026-05-07 02:39 35.78369 -114.20869 14601 ft 311 kts 301°
2026-05-07 02:39 35.79372 -114.23227 14374 ft 311 kts 303°
2026-05-07 02:39 35.80380 -114.25571 14152 ft 309 kts 304°
2026-05-07 02:39 35.81404 -114.27898 13936 ft 307 kts 303°
2026-05-07 02:40 35.82422 -114.30195 13724 ft 305 kts 303°
2026-05-07 02:40 35.83452 -114.32434 13521 ft 302 kts 308°
2026-05-07 02:40 35.84604 -114.34611 13313 ft 299 kts 310°
2026-05-07 02:40 35.85829 -114.36651 13119 ft 296 kts 314°
2026-05-07 02:41 35.87084 -114.38629 12919 ft 295 kts 312°
2026-05-07 02:41 35.88347 -114.40607 12719 ft 294 kts 312°
2026-05-07 02:41 35.89616 -114.42621 12515 ft 294 kts 313°
2026-05-07 02:41 35.90856 -114.44606 12311 ft 294 kts 313°
2026-05-07 02:42 35.92092 -114.46593 12105 ft 293 kts 311°
2026-05-07 02:42 35.93328 -114.48589 11905 ft 291 kts 312°
2026-05-07 02:42 35.94553 -114.50562 11703 ft 287 kts 313°
2026-05-07 02:42 35.95752 -114.52486 11507 ft 283 kts 311°
2026-05-07 02:43 35.96954 -114.54414 11134 ft 283 kts 313°
2026-05-07 02:43 35.98138 -114.56328 10743 ft 279 kts 311°
2026-05-07 02:43 35.99307 -114.58236 10400 ft 276 kts 312°
2026-05-07 02:43 36.00466 -114.60132 10039 ft 275 kts 312°
2026-05-07 02:44 36.01603 -114.61990 9702 ft 271 kts 310°
2026-05-07 02:44 36.02725 -114.63820 9354 ft 264 kts 313°
2026-05-07 02:44 36.03790 -114.65645 9002 ft 260 kts 307°
2026-05-07 02:44 36.04764 -114.67493 8675 ft 255 kts 306°
2026-05-07 02:45 36.05678 -114.69335 8351 ft 251 kts 303°
2026-05-07 02:45 36.06556 -114.71156 8066 ft 245 kts 301°
2026-05-07 02:45 36.07151 -114.73048 8034 ft 224 kts 288°
2026-05-07 02:45 36.07433 -114.74909 7676 ft 220 kts 278°
2026-05-07 02:46 36.07489 -114.76795 7388 ft 213 kts 271°
2026-05-07 02:46 36.07466 -114.78561 7311 ft 202 kts 270°
2026-05-07 02:46 36.07428 -114.80338 7187 ft 210 kts 270°
2026-05-07 02:46 36.07409 -114.82143 6850 ft 207 kts 271°
2026-05-07 02:47 36.07407 -114.83902 6578 ft 205 kts 272°
2026-05-07 02:47 36.07412 -114.85671 6280 ft 205 kts 272°
2026-05-07 02:47 36.07417 -114.87408 5963 ft 205 kts 271°
2026-05-07 02:47 36.07417 -114.89146 5645 ft 194 kts 270°
2026-05-07 02:48 36.07401 -114.90758 5406 ft 183 kts 273°
2026-05-07 02:48 36.07424 -114.92278 5202 ft 178 kts 269°
2026-05-07 02:48 36.07402 -114.93810 4818 ft 178 kts 270°
2026-05-07 02:48 36.07394 -114.95279 4619 ft 171 kts 270°
2026-05-07 02:49 36.07391 -114.96752 4435 ft 173 kts 270°
2026-05-07 02:49 36.07391 -114.98210 4203 ft 172 kts 270°
2026-05-07 02:49 36.07389 -114.99642 4002 ft 170 kts 268°
2026-05-07 02:49 36.07361 -115.01080 3793 ft 170 kts 271°
2026-05-07 02:50 36.07391 -115.02542 3586 ft 170 kts 269°
2026-05-07 02:50 36.07373 -115.03944 3377 ft 169 kts 268°
2026-05-07 02:50 36.07372 -115.05334 3181 ft 169 kts 269°
2026-05-07 02:50 36.07378 -115.06772 2968 ft 169 kts 269°
2026-05-07 02:51 36.07379 -115.08184 2760 ft 168 kts 269°
2026-05-07 02:51 36.07378 -115.09755 2531 ft 166 kts 269°
2026-05-07 02:51 36.07368 -115.11285 2307 ft 164 kts 270°
2026-05-07 02:51 36.07371 -115.12743 2107 ft 164 kts 269°
2026-05-07 02:52 36.07364 -115.14103 2111 ft 125 kts 269°
2026-05-07 02:52 36.07356 -115.14851 2134 ft 57 kts 269°
2026-05-07 02:52 36.07397 -115.15337 2151 ft 53 kts 292°
2026-05-07 02:52 36.07462 -115.15486 2156 ft 0 kts 301°
2026-05-07 02:53 36.07463 -115.15489 2156 ft 2 kts 301°
2026-05-07 02:53 36.07512 -115.15584 2158 ft 22 kts 306°
2026-05-07 02:53 36.07651 -115.15748 2162 ft 20 kts 320°
2026-05-07 02:54 36.07741 -115.15813 2162 ft 10 kts 355°
2026-05-07 02:54 36.07798 -115.15745 2159 ft 16 kts 81°
2026-05-07 02:54 36.07805 -115.15588 2153 ft 22 kts 88°
2026-05-07 02:54 36.07806 -115.15389 2145 ft 27 kts 91°
2026-05-07 02:55 36.07802 -115.15144 2136 ft 33 kts 92°
2026-05-07 02:55 36.07786 -115.14854 2126 ft 38 kts 95°
2026-05-07 02:55 36.07764 -115.14520 2117 ft 41 kts 95°
2026-05-07 02:55 36.07751 -115.14226 2108 ft 36 kts 90°
2026-05-07 02:56 36.07753 -115.13906 2097 ft 41 kts 91°
2026-05-07 02:56 36.07753 -115.13548 2087 ft 42 kts 90°
2026-05-07 02:56 36.07752 -115.13236 2080 ft 39 kts 90°
2026-05-07 02:56 36.07753 -115.12889 2070 ft 37 kts 90°
2026-05-07 02:57 36.07753 -115.12712 2067 ft 18 kts 87°
2026-05-07 02:57 36.07860 -115.12637 2063 ft 22 kts
2026-05-07 02:57 36.07985 -115.12637 2061 ft 7 kts
2026-05-07 02:57 36.08045 -115.12637 2060 ft 2 kts 359°
2026-05-07 02:58 36.08046 -115.12637 2060 ft 0 kts 359°
2026-05-07 02:58 36.08062 -115.12636 2059 ft 4 kts
2026-05-07 02:58 36.08071 -115.12606 2059 ft 6 kts 102°
2026-05-07 02:58 36.08067 -115.12567 2058 ft 3 kts 88°
2026-05-07 02:59 36.08067 -115.12563 2058 ft 0 kts 88°
2026-05-07 02:59 36.08067 -115.12562 2058 ft 0 kts 88°